Location: Maiden
(35.5760°N, 81.2120°W)
Time: 02:14:39
(UTC-04:00)

Spot 2 Rocket - Pass Details

Date: 02 August 2020
Orbit: 757 x 772 km, 98.6° (Epoch: 11 August)

Event Time Altitude Azimuth Distance (km) Brightness Sun altitude
Exits shadow 23:15:21 40° 242° (WSW) 1,134 4.3 -28.0°
Maximum altitude 23:15:58 41° 261° (W) 1,103 4.4 -28.1°
Drops below altitude 10° 23:20:48 10° 332° (NNW) 2,319 6.9 -28.7°
Sets 23:23:15 0° 339° (NNW) 3,248 7.9 -29.0°
